Regional Weather Roundup
Issued by NWS

Home | Current Version | Previous Version | Graphics & Text | Print | Product List | Glossary On
Versions: 1 2 3 4 5 6 7 8 9 10 11 12 13 14 15 16 17 18 19 20 21 22 23 24 25 26 27
000
ASUS45 KSLC 281210
RWRUT

UTAH REGIONAL WEATHER ROUNDUP
NATIONAL WEATHER SERVICE SALT LAKE CITY UT
600 AM MDT TUE MAR 28 2017

UTZ001>011-023>025-281300-

NORTHERN UTAH

CITY           SKY/WX    TMP DP  RH WIND       PRES   REMARKS
BRIGHAM CITY     N/A     41  31  66 N15       30.08R
HILL AFB       PTCLDY    36  30  79 NW12      30.05R WCI  28
LOGAN          CLOUDY    40  34  79 N8        30.08R WCI  34
OGDEN          CLEAR     36  31  82 N13       30.05R WCI  27
SALT LAKE CITY PTCLDY    38  32  79 NW13      30.06R WCI  30
TOOELE VALLEY  CLOUDY    39  32  75 NW9       30.09R WCI  33
WENDOVER       CLEAR     39  22  50 NW22G33   30.11R WCI  29
HEBER CITY     MOCLDY    37  28  70 N12       30.00R WCI  30
WEST JORDAN    PTCLDY    40  37  86 NW18      30.07R WCI  31

$$

UTZ011>015-024>027-281300-

CENTRAL/NORTHEAST UTAH

CITY           SKY/WX    TMP DP  RH WIND       PRES   REMARKS
PROVO AIRPORT  PTCLDY    39  31  72 N18G24    30.04R WCI  30
MOAB/CANYONLAN CLOUDY    43  41  93 NW6       29.84R
DELTA          CLEAR     32  30  93 CALM      30.08R
PRICE          CLOUDY    40  29  64 NW17G25   29.89R WCI  31
RICHFIELD      CLOUDY    37  30  75 N10       30.04R WCI  30
ROOSEVELT      CLOUDY    41  37  87 CALM      29.92R
VERNAL         CLOUDY    40  37  89 CALM      29.89R

$$

UTZ013>016-019>022-027-281300-

SOUTHERN UTAH

CITY           SKY/WX    TMP DP  RH WIND       PRES   REMARKS
BRYCE CANYON   MOCLDY    29  23  78 NW18      29.95R WCI  16
CEDAR CITY     PTCLDY    34  26  72 N12       30.02S WCI  25
MILFORD        PTCLDY    35  27  72 NE14      30.06R WCI  26
ST GEORGE      MOSUNNY   47  32  56 SW9       29.96R
HANKSVILLE     CLOUDY    45  34  65 NW6       29.89R
KANAB          CLEAR     43  27  52 NW3G12    29.96R
BLANDING       CLOUDY    38  37  95 CALM      29.91S

$$

REGIONAL REPORTS     COLORADO/ARIZONA

CITY           SKY/WX    TMP DP  RH WIND       PRES   REMARKS
CRAIG, CO      LGT RAIN  36  33  89 SW6       29.88R WCI  31
GRAND JUNCTION CLOUDY    43  42  97 CALM      29.85R
RIFLE, CO      CLOUDY    43  39  86 CALM      29.85S
MONTROSE, CO   CLOUDY    38  38 100 CALM      29.88R
CORTEZ, CO     CLOUDY    38  36  92 E5        29.85F WCI  34
COLORADO CITY    N/A     43  28  56 NW14      29.96R
PAGE, AZ       CLOUDY    50  30  46 NW7       29.85R
GRAND CANYON   CLOUDY    36  29  75 N8        29.89R WCI  30
KINGMAN, AZ    CLEAR     46  20  35 N13       29.95R
FLAGSTAFF, AZ  PTCLDY    30  27  88 CALM      29.86R

$$

REGIONAL REPORTS    NEVADA/IDAHO/WYOMING

CITY           SKY/WX    TMP DP  RH WIND       PRES   REMARKS
LAS VEGAS, NV  PTCLDY    56  21  25 NW16G24   30.01R
ELY, NY        CLEAR     26  22  84 N6        30.14R WCI  19
ELKO, NV       CLEAR     28  23  81 E5        30.20S WCI  23
POCATELLO, ID  CLOUDY    34  31  88 SW13      30.16R WCI  25
BURLEY, ID     CLOUDY    36  27  69 W15G24    30.16R WCI  27
FORT BRIDGER,  FLURRIES  32  32 100 NW12      30.03R WCI  23
EVANSTON, WY   CLOUDY    31  27  85 N12       30.01R WCI  22
ROCK SPRINGS,  LGT SNOW  34  31  88 N12       29.94R FOG     WCI  25
KEMMERER, WY     N/A     30  28  93 W8        30.00R WCI  23

$$




USA.gov is the U.S. government's official web portal to all federal, state and local government web resources and services.